,,PA_Meas_PMT16A,,PR_Meas_QMR101_102,,RH_Meas_QMH101,,SR_Meas_QMS101,,TA_Meas_QMH101,,GenWind,,GenWind,
time,status,PA,status,PR,status,RH,status,SR,status,TA,status,DirAvg,status,SpdAvg,
2012-11-03, 00:00:04,VALID,916.48,VALID,0,VALID,97.5569,VALID,0,VALID,19.8813,VALID,130,VALID,0,
2012-11-03, 00:01:04,VALID,916.504,VALID,0,VALID,97.5645,VALID,0,VALID,19.8813,VALID,130,VALID,0,
2012-11-03, 00:02:04,VALID,916.505,VALID,0,VALID,97.5416,VALID,0,VALID,19.8813,VALID,130,VALID,0,
2012-11-03, 00:03:04,VALID,916.51,VALID,0,VALID,97.5569,VALID,0,VALID,19.8618,VALID,130,VALID,0,
2012-11-03, 00:04:04,VALID,916.503,VALID,0,VALID,97.5416,VALID,0,VALID,19.8618,VALID,130,VALID,0,
2012-11-03, 00:05:04,VALID,916.523,VALID,0,VALID,97.5416,VALID,0,VALID,19.8618,VALID,130,VALID,0,
2012-11-03, 00:06:04,VALID,916.475,VALID,0,VALID,97.5416,VALID,0,VALID,19.8423,VALID,130,VALID,0,
2012-11-03, 00:07:04,VALID,916.487,VALID,0,VALID,97.534,VALID,0,VALID,19.8228,VALID,130,VALID,0,
2012-11-03, 00:08:04,VALID,916.478,VALID,0,VALID,97.5264,VALID,0,VALID,19.8228,VALID,130,VALID,0,
2012-11-03, 00:09:04,VALID,916.473,VALID,0,VALID,97.5492,VALID,0,VALID,19.8228,VALID,130,VALID,0,
2012-11-03, 00:10:04,VALID,916.492,VALID,0,VALID,97.5187,VALID,0,VALID,19.8033,VALID,130,VALID,0,
2012-11-03, 00:11:04,VALID,916.452,VALID,0,VALID,97.5569,VALID,0,VALID,19.7823,VALID,130,VALID,0,
2012-11-03, 00:12:04,VALID,916.447,VALID,0,VALID,97.5416,VALID,0,VALID,19.8033,VALID,130,VALID,0,
2012-11-03, 00:13:04,VALID,916.399,VALID,0,VALID,97.5416,VALID,0,VALID,19.7433,VALID,130,VALID,0,
2012-11-03, 00:14:04,VALID,916.397,VALID,0,VALID,97.5416,VALID,0,VALID,19.7448,VALID,130,VALID,0,
2012-11-03, 00:15:04,VALID,916.373,VALID,0,VALID,97.5569,VALID,0,VALID,19.7628,VALID,130,VALID,0,
2012-11-03, 00:16:04,VALID,916.386,VALID,0,VALID,97.5569,VALID,0,VALID,19.7448,VALID,130,VALID,0,
2012-11-03, 00:17:04,VALID,916.348,VALID,0,VALID,97.534,VALID,0,VALID,19.7448,VALID,130,VALID,0,
2012-11-03, 00:18:04,VALID,916.338,VALID,0,VALID,97.5569,VALID,0,VALID,19.7643,VALID,130,VALID,0,
2012-11-03, 00:19:04,VALID,916.314,VALID,0,VALID,97.5492,VALID,0,VALID,19.7433,VALID,130,VALID,0,
2012-11-03, 00:20:04,VALID,916.274,VALID,0,VALID,97.5492,VALID,0,VALID,19.7448,VALID,181,VALID,0,
2012-11-03, 00:21:04,VALID,916.253,VALID,0,VALID,97.5645,VALID,0,VALID,19.7253,VALID,181,VALID,0,
2012-11-03, 00:22:04,VALID,916.225,VALID,0,VALID,97.5645,VALID,0,VALID,19.7253,VALID,181,VALID,0,
2012-11-03, 00:23:04,VALID,916.196,VALID,0,VALID,97.5569,VALID,0,VALID,19.7043,VALID,181,VALID,0,
2012-11-03, 00:24:04,VALID,916.208,VALID,0,VALID,97.5416,VALID,0,VALID,19.7448,VALID,198,VALID,0,
2012-11-03, 00:25:04,VALID,916.248,VALID,0,VALID,97.5645,VALID,0,VALID,19.7253,VALID,189,VALID,0,
2012-11-03, 00:26:04,VALID,916.212,VALID,0,VALID,97.5569,VALID,0,VALID,19.7238,VALID,189,VALID,0,
2012-11-03, 00:27:04,VALID,916.208,VALID,0,VALID,97.5721,VALID,0,VALID,19.7238,VALID,189,VALID,0,
2012-11-03, 00:28:04,VALID,916.221,VALID,0,VALID,97.5645,VALID,0,VALID,19.7448,VALID,189,VALID,0,
2012-11-03, 00:29:04,VALID,916.206,VALID,0,VALID,97.5645,VALID,0,VALID,19.7448,VALID,189,VALID,0,
2012-11-03, 00:30:04,VALID,916.216,VALID,0,VALID,97.5569,VALID,0,VALID,19.7238,VALID,189,VALID,0,
2012-11-03, 00:31:04,VALID,916.196,VALID,0,VALID,97.5645,VALID,0,VALID,19.7253,VALID,189,VALID,0,
2012-11-03, 00:32:04,VALID,916.208,VALID,0,VALID,97.5645,VALID,0,VALID,19.7643,VALID,189,VALID,0,
2012-11-03, 00:33:04,VALID,916.199,VALID,0,VALID,97.5645,VALID,0,VALID,19.7448,VALID,154,VALID,0,
2012-11-03, 00:34:04,VALID,916.197,VALID,0,VALID,97.5492,VALID,0,VALID,19.7253,VALID,159,VALID,0,
2012-11-03, 00:35:04,VALID,916.212,VALID,0,VALID,97.5492,VALID,0,VALID,19.7253,VALID,162,VALID,0,
2012-11-03, 00:36:04,VALID,916.194,VALID,0,VALID,97.5797,VALID,0,VALID,19.7058,VALID,156,VALID,0,
2012-11-03, 00:37:04,VALID,916.175,VALID,0,VALID,97.5492,VALID,0,VALID,19.7448,VALID,141,VALID,0,
2012-11-03, 00:38:04,VALID,916.145,VALID,0,VALID,97.5797,VALID,0,VALID,19.7058,VALID,141,VALID,0,
2012-11-03, 00:39:04,VALID,916.13,VALID,0,VALID,97.5569,VALID,0,VALID,19.7448,VALID,141,VALID,0,
2012-11-03, 00:40:04,VALID,916.139,VALID,0,VALID,97.5721,VALID,0,VALID,19.7253,VALID,129,VALID,0,
2012-11-03, 00:41:04,VALID,916.144,VALID,0,VALID,97.534,VALID,0,VALID,19.7253,VALID,129,VALID,0,
2012-11-03, 00:42:04,VALID,916.154,VALID,0,VALID,97.5645,VALID,0,VALID,19.7043,VALID,133,VALID,0,
2012-11-03, 00:43:04,VALID,916.129,VALID,0,VALID,97.5416,VALID,0,VALID,19.7058,VALID,133,VALID,0,
2012-11-03, 00:44:04,VALID,916.172,VALID,0,VALID,97.5492,VALID,0,VALID,19.7058,VALID,108,VALID,0,
2012-11-03, 00:45:04,VALID,916.198,VALID,0,VALID,97.5645,VALID,0,VALID,19.6863,VALID,107,VALID,0,
2012-11-03, 00:46:04,VALID,916.233,VALID,0,VALID,97.5797,VALID,0,VALID,19.6863,VALID,66,VALID,0,
2012-11-03, 00:47:04,VALID,916.244,VALID,0,VALID,97.5645,VALID,0,VALID,19.6668,VALID,39,VALID,0,
2012-11-03, 00:48:04,VALID,916.226,VALID,0,VALID,97.5569,VALID,0,VALID,19.6668,VALID,39,VALID,0,
2012-11-03, 00:49:04,VALID,916.246,VALID,0,VALID,97.5721,VALID,0,VALID,19.6473,VALID,39,VALID,0,
2012-11-03, 00:50:04,VALID,916.273,VALID,0,VALID,97.5569,VALID,0,VALID,19.6068,VALID,39,VALID,0,
2012-11-03, 00:51:04,VALID,916.29,VALID,0,VALID,97.5721,VALID,0,VALID,19.5888,VALID,39,VALID,0,
2012-11-03, 00:52:04,VALID,916.267,VALID,0,VALID,97.5721,VALID,0,VALID,19.5888,VALID,39,VALID,0,
2012-11-03, 00:53:04,VALID,916.271,VALID,0,VALID,97.5645,VALID,0,VALID,19.5888,VALID,39,VALID,0,
2012-11-03, 00:54:04,VALID,916.261,VALID,0,VALID,97.595,VALID,0,VALID,19.5888,VALID,39,VALID,0,
2012-11-03, 00:55:04,VALID,916.241,VALID,0,VALID,97.5645,VALID,0,VALID,19.6278,VALID,39,VALID,0,
2012-11-03, 00:56:04,VALID,916.263,VALID,0,VALID,97.5645,VALID,0,VALID,19.6278,VALID,39,VALID,0,
2012-11-03, 00:57:04,VALID,916.212,VALID,0,VALID,97.5873,VALID,0,VALID,19.6083,VALID,39,VALID,0,
2012-11-03, 00:58:04,VALID,916.185,VALID,0,VALID,97.5797,VALID,0,VALID,19.6083,VALID,39,VALID,0,
2012-11-03, 00:59:04,VALID,916.199,VALID,0,VALID,97.5721,VALID,0,VALID,19.6083,VALID,39,VALID,0,
2012-11-03, 01:00:04,VALID,916.174,VALID,0,VALID,97.5873,VALID,0,VALID,19.6278,VALID,39,VALID,0,
2012-11-03, 01:01:04,VALID,916.204,VALID,0,VALID,97.595,VALID,0,VALID,19.6083,VALID,39,VALID,0,
2012-11-03, 01:02:04,VALID,916.188,VALID,0,VALID,97.595,VALID,0.107441,VALID,19.5678,VALID,39,VALID,0,
2012-11-03, 01:03:04,VALID,916.221,VALID,0,VALID,97.6102,VALID,0,VALID,19.5693,VALID,39,VALID,0,
2012-11-03, 01:04:04,VALID,916.242,VALID,0,VALID,97.595,VALID,0.107441,VALID,19.5498,VALID,39,VALID,0,
2012-11-03, 01:05:04,VALID,916.247,VALID,0,VALID,97.5721,VALID,0,VALID,19.5498,VALID,39,VALID,0,
2012-11-03, 01:06:04,VALID,916.284,VALID,0,VALID,97.5797,VALID,0,VALID,19.5303,VALID,39,VALID,0,
2012-11-03, 01:07:04,VALID,916.269,VALID,0,VALID,97.595,VALID,0,VALID,19.5303,VALID,39,VALID,0,
2012-11-03, 01:08:04,VALID,916.278,VALID,0,VALID,97.5797,VALID,0,VALID,19.5303,VALID,39,VALID,0,
2012-11-03, 01:09:04,VALID,916.293,VALID,0,VALID,97.6102,VALID,0,VALID,19.5498,VALID,39,VALID,0,
2012-11-03, 01:10:04,VALID,916.286,VALID,0,VALID,97.595,VALID,0,VALID,19.5498,VALID,39,VALID,0,
2012-11-03, 01:11:04,VALID,916.259,VALID,0,VALID,97.6102,VALID,0,VALID,19.5483,VALID,39,VALID,0,
2012-11-03, 01:12:04,VALID,916.286,VALID,0,VALID,97.6026,VALID,0,VALID,19.5498,VALID,39,VALID,0,
2012-11-03, 01:13:04,VALID,916.252,VALID,0,VALID,97.6178,VALID,0,VALID,19.5288,VALID,39,VALID,0,
2012-11-03, 01:14:04,VALID,916.278,VALID,0,VALID,97.6026,VALID,0.107441,VALID,19.5288,VALID,39,VALID,0,
2012-11-03, 01:15:04,VALID,916.244,VALID,0,VALID,97.6407,VALID,0,VALID,19.5498,VALID,39,VALID,0,
2012-11-03, 01:16:04,VALID,916.254,VALID,0,VALID,97.595,VALID,0,VALID,19.5498,VALID,39,VALID,0,
2012-11-03, 01:17:04,VALID,916.237,VALID,0,VALID,97.6026,VALID,0.107441,VALID,19.5483,VALID,39,VALID,0,
2012-11-03, 01:18:04,VALID,916.221,VALID,0,VALID,97.6102,VALID,0,VALID,19.5483,VALID,39,VALID,0,
2012-11-03, 01:19:04,VALID,916.195,VALID,0,VALID,97.5873,VALID,0.107441,VALID,19.5483,VALID,39,VALID,0,
2012-11-03, 01:20:04,VALID,916.2,VALID,0,VALID,97.5873,VALID,0.107441,VALID,19.5693,VALID,39,VALID,0,
2012-11-03, 01:21:04,VALID,916.19,VALID,0,VALID,97.6102,VALID,0,VALID,19.5888,VALID,39,VALID,0,
2012-11-03, 01:22:04,VALID,916.184,VALID,0,VALID,97.5873,VALID,0,VALID,19.6068,VALID,39,VALID,0,
2012-11-03, 01:23:04,VALID,916.18,VALID,0,VALID,97.6026,VALID,0,VALID,19.6068,VALID,39,VALID,0,
2012-11-03, 01:24:04,VALID,916.162,VALID,0,VALID,97.6026,VALID,0,VALID,19.5888,VALID,39,VALID,0,
2012-11-03, 01:25:04,VALID,916.142,VALID,0,VALID,97.595,VALID,0.107441,VALID,19.6068,VALID,321,VALID,0,
2012-11-03, 01:26:04,VALID,916.148,VALID,0,VALID,97.6178,VALID,0.107441,VALID,19.5483,VALID,321,VALID,0,
2012-11-03, 01:27:04,VALID,916.179,VALID,0,VALID,97.6026,VALID,0,VALID,19.5678,VALID,321,VALID,0,
2012-11-03, 01:28:04,VALID,916.18,VALID,0,VALID,97.6102,VALID,0.107441,VALID,19.5483,VALID,354,VALID,0,
2012-11-03, 01:29:04,VALID,916.162,VALID,0,VALID,97.6026,VALID,0.107441,VALID,19.5483,VALID,354,VALID,0,
2012-11-03, 01:30:04,VALID,916.147,VALID,0,VALID,97.6178,VALID,0.107441,VALID,19.6083,VALID,340,VALID,0,
2012-11-03, 01:31:04,VALID,916.197,VALID,0,VALID,97.6102,VALID,0,VALID,19.6068,VALID,327,VALID,0,
2012-11-03, 01:32:04,VALID,916.187,VALID,0,VALID,97.6102,VALID,0,VALID,19.6668,VALID,327,VALID,0,
2012-11-03, 01:33:04,VALID,916.2,VALID,0,VALID,97.6178,VALID,0,VALID,19.6458,VALID,291,VALID,0,
2012-11-03, 01:34:04,VALID,916.175,VALID,0,VALID,97.6178,VALID,0,VALID,19.6473,VALID,291,VALID,0,
2012-11-03, 01:35:04,VALID,916.188,VALID,0,VALID,97.6102,VALID,0.107441,VALID,19.6653,VALID,291,VALID,0,
2012-11-03, 01:36:04,VALID,916.195,VALID,0,VALID,97.6026,VALID,0.107441,VALID,19.7058,VALID,291,VALID,0,
2012-11-03, 01:37:04,VALID,916.191,VALID,0,VALID,97.6178,VALID,0,VALID,19.6863,VALID,291,VALID,0,
2012-11-03, 01:38:04,VALID,916.221,VALID,0,VALID,97.6102,VALID,0,VALID,19.6848,VALID,291,VALID,0,
2012-11-03, 01:39:04,VALID,916.194,VALID,0,VALID,97.6178,VALID,0,VALID,19.6653,VALID,291,VALID,0,
2012-11-03, 01:40:04,VALID,916.224,VALID,0,VALID,97.6102,VALID,0,VALID,19.6848,VALID,291,VALID,0,
2012-11-03, 01:41:04,VALID,916.24,VALID,0,VALID,97.6102,VALID,0,VALID,19.7058,VALID,291,VALID,0,
2012-11-03, 01:42:04,VALID,916.247,VALID,0,VALID,97.595,VALID,0.107441,VALID,19.7253,VALID,291,VALID,0,
2012-11-03, 01:43:04,VALID,916.217,VALID,0,VALID,97.6026,VALID,0,VALID,19.6863,VALID,291,VALID,0,
2012-11-03, 01:44:04,VALID,916.18,VALID,0,VALID,97.6178,VALID,0,VALID,19.6653,VALID,255,VALID,0,
2012-11-03, 01:45:04,VALID,916.175,VALID,0,VALID,97.6102,VALID,0,VALID,19.7058,VALID,255,VALID,0,
2012-11-03, 01:46:04,VALID,916.169,VALID,0,VALID,97.595,VALID,0,VALID,19.7058,VALID,253,VALID,0,
2012-11-03, 01:47:04,VALID,916.186,VALID,0,VALID,97.6102,VALID,0,VALID,19.6848,VALID,345,VALID,0,
2012-11-03, 01:48:04,VALID,916.145,VALID,0,VALID,97.595,VALID,0.107441,VALID,19.7043,VALID,33,VALID,0,
2012-11-03, 01:49:04,VALID,916.184,VALID,0,VALID,97.6178,VALID,0.107441,VALID,19.7043,VALID,32,VALID,0,
2012-11-03, 01:50:04,VALID,916.16,VALID,0,VALID,97.6178,VALID,0.107441,VALID,19.7043,VALID,32,VALID,0,
2012-11-03, 01:51:04,VALID,916.127,VALID,0,VALID,97.595,VALID,0,VALID,19.7043,VALID,33,VALID,0,
2012-11-03, 01:52:04,VALID,916.115,VALID,0,VALID,97.6255,VALID,0,VALID,19.6848,VALID,32,VALID,0,
2012-11-03, 01:53:04,VALID,916.109,VALID,0,VALID,97.6102,VALID,0,VALID,19.7253,VALID,32,VALID,0,
2012-11-03, 01:54:04,VALID,916.1,VALID,0,VALID,97.6102,VALID,0,VALID,19.7238,VALID,32,VALID,0,
2012-11-03, 01:55:04,VALID,916.121,VALID,0,VALID,97.6026,VALID,0,VALID,19.7238,VALID,32,VALID,0,
2012-11-03, 01:56:04,VALID,916.082,VALID,0,VALID,97.6026,VALID,0,VALID,19.7838,VALID,33,VALID,0,
2012-11-03, 01:57:04,VALID,916.111,VALID,0,VALID,97.6102,VALID,0,VALID,19.7433,VALID,32,VALID,0,
2012-11-03, 01:58:04,VALID,916.081,VALID,0,VALID,97.6102,VALID,0,VALID,19.6653,VALID,262,VALID,0,
2012-11-03, 01:59:04,VALID,916.091,VALID,0,VALID,97.595,VALID,0,VALID,19.7043,VALID,231,VALID,0,
2012-11-03, 02:00:04,VALID,916.031,VALID,0,VALID,97.6102,VALID,0,VALID,19.7238,VALID,245,VALID,0,
2012-11-03, 02:01:04,VALID,915.998,VALID,0,VALID,97.6102,VALID,0,VALID,19.6848,VALID,250,VALID,0,
2012-11-03, 02:02:04,VALID,915.95,VALID,0,VALID,97.6178,VALID,0,VALID,19.7043,VALID,254,VALID,0,
2012-11-03, 02:03:04,VALID,915.934,VALID,0,VALID,97.6255,VALID,0.107441,VALID,19.6653,VALID,253,VALID,0,
2012-11-03, 02:04:04,VALID,915.918,VALID,0,VALID,97.6255,VALID,0,VALID,19.6863,VALID,266,VALID,0,
2012-11-03, 02:05:04,VALID,915.888,VALID,0,VALID,97.6102,VALID,0,VALID,19.7058,VALID,228,VALID,0,
2012-11-03, 02:06:04,VALID,915.885,VALID,0,VALID,97.6102,VALID,0.107441,VALID,19.6668,VALID,228,VALID,0,
2012-11-03, 02:07:04,VALID,915.925,VALID,0,VALID,97.6102,VALID,0.107441,VALID,19.6653,VALID,228,VALID,0,
2012-11-03, 02:08:04,VALID,915.898,VALID,0,VALID,97.6178,VALID,0,VALID,19.7058,VALID,228,VALID,0,
2012-11-03, 02:09:04,VALID,915.92,VALID,0,VALID,97.6178,VALID,0,VALID,19.7448,VALID,228,VALID,0,
2012-11-03, 02:10:04,VALID,915.934,VALID,0,VALID,97.6255,VALID,0.107441,VALID,19.7433,VALID,228,VALID,0,
2012-11-03, 02:11:04,VALID,915.958,VALID,0,VALID,97.6178,VALID,0,VALID,19.7838,VALID,228,VALID,0,
2012-11-03, 02:12:04,VALID,915.952,VALID,0,VALID,97.6178,VALID,0,VALID,19.7643,VALID,228,VALID,0,
2012-11-03, 02:13:04,VALID,915.939,VALID,0,VALID,97.6178,VALID,0,VALID,19.7643,VALID,12,VALID,0,
2012-11-03, 02:14:04,VALID,915.929,VALID,0,VALID,97.6102,VALID,0,VALID,19.6848,VALID,347,VALID,0,
2012-11-03, 02:15:04,VALID,915.951,VALID,0,VALID,97.6331,VALID,0,VALID,19.7058,VALID,18,VALID,0,
2012-11-03, 02:16:04,VALID,915.934,VALID,0,VALID,97.6178,VALID,0,VALID,19.6653,VALID,349,VALID,0,
2012-11-03, 02:17:04,VALID,915.93,VALID,0,VALID,97.6026,VALID,0,VALID,19.6473,VALID,29,VALID,0,
2012-11-03, 02:18:04,VALID,915.935,VALID,0,VALID,97.6255,VALID,0,VALID,19.6668,VALID,29,VALID,0,
2012-11-03, 02:19:04,VALID,915.93,VALID,0,VALID,97.6178,VALID,0,VALID,19.6863,VALID,29,VALID,0,
2012-11-03, 02:20:04,VALID,915.895,VALID,0,VALID,97.6178,VALID,0,VALID,19.7043,VALID,29,VALID,0,
2012-11-03, 02:21:04,VALID,915.95,VALID,0,VALID,97.6255,VALID,0,VALID,19.7238,VALID,29,VALID,0,
2012-11-03, 02:22:04,VALID,915.898,VALID,0,VALID,97.6255,VALID,0,VALID,19.7253,VALID,29,VALID,0,
2012-11-03, 02:23:04,VALID,915.914,VALID,0,VALID,97.6407,VALID,0,VALID,19.7058,VALID,242,VALID,0,
2012-11-03, 02:24:04,VALID,915.919,VALID,0,VALID,97.6178,VALID,0,VALID,19.6653,VALID,242,VALID,0,
2012-11-03, 02:25:04,VALID,915.909,VALID,0,VALID,97.6331,VALID,0,VALID,19.6863,VALID,242,VALID,0,
2012-11-03, 02:26:04,VALID,915.922,VALID,0,VALID,97.6331,VALID,0,VALID,19.6668,VALID,242,VALID,0,
2012-11-03, 02:27:04,VALID,915.917,VALID,0,VALID,97.6331,VALID,0,VALID,19.6653,VALID,242,VALID,0,
2012-11-03, 02:28:04,VALID,915.9,VALID,0,VALID,97.6255,VALID,0,VALID,19.6653,VALID,242,VALID,0,
2012-11-03, 02:29:04,VALID,915.886,VALID,0,VALID,97.6255,VALID,0,VALID,19.6653,VALID,242,VALID,0,
2012-11-03, 02:30:04,VALID,915.897,VALID,0,VALID,97.6255,VALID,0,VALID,19.6458,VALID,242,VALID,0,
2012-11-03, 02:31:04,VALID,915.888,VALID,0,VALID,97.6255,VALID,0,VALID,19.6848,VALID,242,VALID,0,
2012-11-03, 02:32:04,VALID,915.895,VALID,0,VALID,97.6407,VALID,0,VALID,19.7238,VALID,242,VALID,0,
2012-11-03, 02:33:04,VALID,915.903,VALID,0,VALID,97.6331,VALID,0,VALID,19.6848,VALID,242,VALID,0,
2012-11-03, 02:34:04,VALID,915.904,VALID,0,VALID,97.6331,VALID,0,VALID,19.6458,VALID,242,VALID,0,
2012-11-03, 02:35:04,VALID,915.878,VALID,0,VALID,97.6255,VALID,0,VALID,19.6473,VALID,242,VALID,0,
2012-11-03, 02:36:04,VALID,915.87,VALID,0,VALID,97.6331,VALID,0.107441,VALID,19.7043,VALID,242,VALID,0,
2012-11-03, 02:37:04,VALID,915.852,VALID,0,VALID,97.6331,VALID,0,VALID,19.7058,VALID,242,VALID,0,
2012-11-03, 02:38:04,VALID,915.861,VALID,0,VALID,97.6483,VALID,0.107441,VALID,19.6458,VALID,242,VALID,0,
2012-11-03, 02:39:04,VALID,915.833,VALID,0,VALID,97.6407,VALID,0.107441,VALID,19.6653,VALID,242,VALID,0,
2012-11-03, 02:40:04,VALID,915.89,VALID,0,VALID,97.6636,VALID,0,VALID,19.6863,VALID,242,VALID,0,
2012-11-03, 02:41:04,VALID,915.874,VALID,0,VALID,97.6331,VALID,0,VALID,19.7253,VALID,242,VALID,0,
2012-11-03, 02:42:04,VALID,915.847,VALID,0,VALID,97.6255,VALID,0,VALID,19.7448,VALID,242,VALID,0,
2012-11-03, 02:43:04,VALID,915.879,VALID,0,VALID,97.6255,VALID,0,VALID,19.8033,VALID,242,VALID,0,
2012-11-03, 02:44:04,VALID,915.888,VALID,0,VALID,97.6407,VALID,0,VALID,19.7823,VALID,242,VALID,0,
2012-11-03, 02:45:04,VALID,915.885,VALID,0,VALID,97.6178,VALID,0,VALID,19.8423,VALID,242,VALID,0,
2012-11-03, 02:46:04,VALID,915.928,VALID,0,VALID,97.6255,VALID,0,VALID,19.7253,VALID,242,VALID,0,
2012-11-03, 02:47:04,VALID,915.906,VALID,0,VALID,97.6255,VALID,0,VALID,19.7838,VALID,242,VALID,0,
2012-11-03, 02:48:04,VALID,915.92,VALID,0,VALID,97.6483,VALID,0,VALID,19.7628,VALID,242,VALID,0,
2012-11-03, 02:49:04,VALID,915.949,VALID,0,VALID,97.6407,VALID,0,VALID,19.7628,VALID,242,VALID,0,
2012-11-03, 02:50:04,VALID,915.974,VALID,0,VALID,97.6483,VALID,0,VALID,19.8033,VALID,242,VALID,0,
2012-11-03, 02:51:04,VALID,915.94,VALID,0,VALID,97.6255,VALID,0,VALID,19.8033,VALID,242,VALID,0,
2012-11-03, 02:52:04,VALID,915.942,VALID,0,VALID,97.6255,VALID,0,VALID,19.7838,VALID,242,VALID,0,
2012-11-03, 02:53:04,VALID,915.943,VALID,0,VALID,97.6407,VALID,0,VALID,19.7643,VALID,242,VALID,0,
2012-11-03, 02:54:04,VALID,915.952,VALID,0,VALID,97.6255,VALID,0,VALID,19.7628,VALID,242,VALID,0,
2012-11-03, 02:55:04,VALID,915.954,VALID,0,VALID,97.6331,VALID,0,VALID,19.7238,VALID,242,VALID,0,
2012-11-03, 02:56:04,VALID,915.928,VALID,0,VALID,97.6407,VALID,0,VALID,19.7643,VALID,242,VALID,0,
2012-11-03, 02:57:04,VALID,915.972,VALID,0,VALID,97.6255,VALID,0,VALID,19.7448,VALID,242,VALID,0,
2012-11-03, 02:58:04,VALID,915.961,VALID,0,VALID,97.6178,VALID,0,VALID,19.7643,VALID,242,VALID,0,
2012-11-03, 02:59:04,VALID,915.933,VALID,0,VALID,97.6483,VALID,0,VALID,19.7838,VALID,242,VALID,0,
2012-11-03, 03:00:04,VALID,915.986,VALID,0,VALID,97.6255,VALID,0,VALID,19.7838,VALID,242,VALID,0,
2012-11-03, 03:01:04,VALID,915.976,VALID,0,VALID,97.656,VALID,0,VALID,19.7643,VALID,242,VALID,0,
2012-11-03, 03:02:04,VALID,915.957,VALID,0,VALID,97.6331,VALID,0,VALID,19.8033,VALID,242,VALID,0,
2012-11-03, 03:03:04,VALID,915.93,VALID,0,VALID,97.6407,VALID,0,VALID,19.8423,VALID,10,VALID,0,
2012-11-03, 03:04:04,VALID,915.91,VALID,0,VALID,97.6407,VALID,0,VALID,19.8228,VALID,10,VALID,0,
2012-11-03, 03:05:04,VALID,915.889,VALID,0,VALID,97.6331,VALID,0,VALID,19.7643,VALID,10,VALID,0,
2012-11-03, 03:06:04,VALID,915.87,VALID,0,VALID,97.6407,VALID,0.107441,VALID,19.7253,VALID,10,VALID,0,
2012-11-03, 03:07:04,VALID,915.88,VALID,0,VALID,97.6407,VALID,0,VALID,19.7058,VALID,10,VALID,0,
2012-11-03, 03:08:04,VALID,915.853,VALID,0,VALID,97.6255,VALID,0,VALID,19.7253,VALID,10,VALID,0,
2012-11-03, 03:09:04,VALID,915.827,VALID,0,VALID,97.6331,VALID,0,VALID,19.7643,VALID,10,VALID,0,
2012-11-03, 03:10:04,VALID,915.824,VALID,0,VALID,97.6331,VALID,0,VALID,19.7253,VALID,10,VALID,0,
2012-11-03, 03:11:04,VALID,915.813,VALID,0,VALID,97.6407,VALID,0,VALID,19.8033,VALID,10,VALID,0,
2012-11-03, 03:12:04,VALID,915.772,VALID,0,VALID,97.6331,VALID,0,VALID,19.7838,VALID,10,VALID,0,
2012-11-03, 03:13:04,VALID,915.796,VALID,0,VALID,97.6407,VALID,0,VALID,19.8033,VALID,10,VALID,0,
2012-11-03, 03:14:04,VALID,915.778,VALID,0,VALID,97.6483,VALID,0,VALID,19.8033,VALID,10,VALID,0,
2012-11-03, 03:15:04,VALID,915.763,VALID,0,VALID,97.6636,VALID,0,VALID,19.7253,VALID,9,VALID,0,
2012-11-03, 03:16:04,VALID,915.77,VALID,0,VALID,97.6407,VALID,0,VALID,19.6863,VALID,9,VALID,0,
2012-11-03, 03:17:04,VALID,915.774,VALID,0,VALID,97.6483,VALID,0,VALID,19.7058,VALID,343,VALID,0,
2012-11-03, 03:18:04,VALID,915.728,VALID,0,VALID,97.6407,VALID,0,VALID,19.6863,VALID,345,VALID,0,
2012-11-03, 03:19:04,VALID,915.751,VALID,0,VALID,97.6407,VALID,0,VALID,19.6473,VALID,348,VALID,0,
2012-11-03, 03:20:04,VALID,915.747,VALID,0,VALID,97.6407,VALID,0,VALID,19.6668,VALID,348,VALID,0,
2012-11-03, 03:21:04,VALID,915.746,VALID,0,VALID,97.6483,VALID,0,VALID,19.6473,VALID,348,VALID,0,
2012-11-03, 03:22:04,VALID,915.709,VALID,0,VALID,97.6636,VALID,0,VALID,19.6278,VALID,348,VALID,0,
2012-11-03, 03:23:04,VALID,915.678,VALID,0,VALID,97.6483,VALID,0,VALID,19.6083,VALID,348,VALID,0,
2012-11-03, 03:24:04,VALID,915.68,VALID,0,VALID,97.6483,VALID,0,VALID,19.6278,VALID,348,VALID,0,
2012-11-03, 03:25:04,VALID,915.68,VALID,0,VALID,97.656,VALID,0,VALID,19.6083,VALID,348,VALID,0,
2012-11-03, 03:26:04,VALID,915.66,VALID,0,VALID,97.6407,VALID,0,VALID,19.6083,VALID,348,VALID,0,
2012-11-03, 03:27:04,VALID,915.656,VALID,0,VALID,97.656,VALID,0,VALID,19.6068,VALID,348,VALID,0,
2012-11-03, 03:28:04,VALID,915.583,VALID,0,VALID,97.656,VALID,0,VALID,19.6083,VALID,348,VALID,0,
2012-11-03, 03:29:04,VALID,915.587,VALID,0,VALID,97.6407,VALID,0,VALID,19.6473,VALID,348,VALID,0,
2012-11-03, 03:30:04,VALID,915.57,VALID,0,VALID,97.6636,VALID,0,VALID,19.6473,VALID,348,VALID,0,
2012-11-03, 03:31:04,VALID,915.571,VALID,0,VALID,97.6788,VALID,0,VALID,19.6278,VALID,13,VALID,0,
2012-11-03, 03:32:04,VALID,915.542,VALID,0,VALID,97.6788,VALID,0,VALID,19.6278,VALID,24,VALID,0,
2012-11-03, 03:33:04,VALID,915.535,VALID,0,VALID,97.6636,VALID,0,VALID,19.5693,VALID,24,VALID,0,
2012-11-03, 03:34:04,VALID,915.522,VALID,0,VALID,97.6788,VALID,0,VALID,19.5888,VALID,24,VALID,0,
2012-11-03, 03:35:04,VALID,915.466,VALID,0,VALID,97.6712,VALID,0,VALID,19.5888,VALID,24,VALID,0,
2012-11-03, 03:36:04,VALID,915.442,VALID,0,VALID,97.6636,VALID,0,VALID,19.6083,VALID,24,VALID,0,
2012-11-03, 03:37:04,VALID,915.466,VALID,0,VALID,97.6865,VALID,0,VALID,19.5888,VALID,24,VALID,0,
2012-11-03, 03:38:04,VALID,915.432,VALID,0,VALID,97.656,VALID,0,VALID,19.5693,VALID,24,VALID,0,
2012-11-03, 03:39:04,VALID,915.437,VALID,0,VALID,97.6636,VALID,0,VALID,19.5693,VALID,24,VALID,0,
2012-11-03, 03:40:04,VALID,915.433,VALID,0,VALID,97.6712,VALID,0,VALID,19.5888,VALID,24,VALID,0,
2012-11-03, 03:41:04,VALID,915.435,VALID,0,VALID,97.6865,VALID,0,VALID,19.5303,VALID,24,VALID,0,
2012-11-03, 03:42:04,VALID,915.466,VALID,0,VALID,97.6483,VALID,0,VALID,19.5303,VALID,24,VALID,0,
2012-11-03, 03:43:04,VALID,915.463,VALID,0,VALID,97.6636,VALID,0,VALID,19.5108,VALID,24,VALID,0,
2012-11-03, 03:44:04,VALID,915.477,VALID,0,VALID,97.6712,VALID,0,VALID,19.5108,VALID,42,VALID,0,
2012-11-03, 03:45:04,VALID,915.482,VALID,0,VALID,97.6941,VALID,0,VALID,19.4913,VALID,63,VALID,0,
2012-11-03, 03:46:04,VALID,915.475,VALID,0,VALID,97.6941,VALID,0,VALID,19.4913,VALID,80,VALID,0,
2012-11-03, 03:47:04,VALID,915.468,VALID,0,VALID,97.7017,VALID,0,VALID,19.4913,VALID,80,VALID,0,
2012-11-03, 03:48:04,VALID,915.473,VALID,0,VALID,97.6865,VALID,0,VALID,19.4523,VALID,80,VALID,0,
2012-11-03, 03:49:04,VALID,915.457,VALID,0,VALID,97.6865,VALID,0,VALID,19.4523,VALID,80,VALID,0,
2012-11-03, 03:50:04,VALID,915.452,VALID,0,VALID,97.6941,VALID,0,VALID,19.4718,VALID,80,VALID,0,
2012-11-03, 03:51:04,VALID,915.446,VALID,0,VALID,97.7017,VALID,0,VALID,19.4718,VALID,124,VALID,0,
2012-11-03, 03:52:04,VALID,915.419,VALID,0,VALID,97.7093,VALID,0,VALID,19.4718,VALID,124,VALID,0,
2012-11-03, 03:53:04,VALID,915.404,VALID,0,VALID,97.7017,VALID,0,VALID,19.4718,VALID,124,VALID,0,
2012-11-03, 03:54:04,VALID,915.378,VALID,0,VALID,97.6712,VALID,0,VALID,19.4913,VALID,124,VALID,0,
2012-11-03, 03:55:04,VALID,915.389,VALID,0,VALID,97.6865,VALID,0,VALID,19.4718,VALID,152,VALID,0,
2012-11-03, 03:56:04,VALID,915.368,VALID,0,VALID,97.7017,VALID,0,VALID,19.5108,VALID,152,VALID,0,
2012-11-03, 03:57:04,VALID,915.389,VALID,0,VALID,97.6865,VALID,0,VALID,19.5108,VALID,144,VALID,0,
2012-11-03, 03:58:04,VALID,915.369,VALID,0,VALID,97.6865,VALID,0,VALID,19.5303,VALID,162,VALID,0,
2012-11-03, 03:59:04,VALID,915.356,VALID,0,VALID,97.6865,VALID,0,VALID,19.5693,VALID,144,VALID,0,